CST,Max TemperatureF,Mean TemperatureF,Min TemperatureF,Max Dew PointF,MeanDew PointF,Min DewpointF,Max Humidity, Mean Humidity, Min Humidity, Max Sea Level PressureIn, Mean Sea Level PressureIn, Min Sea Level PressureIn, Max VisibilityMiles, Mean VisibilityMiles, Min VisibilityMiles, Max Wind SpeedMPH, Mean Wind SpeedMPH, Max Gust SpeedMPH,PrecipitationIn, CloudCover, Events, WindDirDegrees
2012-12-1,86,80,75,75,73,72,89,80,66,29.99,29.91,29.84,10,10,10,10,1,,0.00,3,,253
2012-12-2,87,81,75,75,73,70,89,76,55,30.01,29.94,29.84,10,10,10,16,2,,0.00,2,,264
2012-12-3,86,80,75,75,73,70,89,79,66,29.99,29.91,29.80,10,10,10,12,1,,0.00,3,,215
2012-12-4,87,81,75,75,73,72,89,78,62,30.02,29.94,29.85,10,10,10,98,6,,0.00,4,,239
2012-12-5,86,80,75,75,72,70,89,78,70,30.00,29.91,29.81,10,9,8,12,4,,0.00,5,,208
2012-12-6,86,80,73,75,72,66,89,79,66,29.93,29.87,29.78,10,9,8,12,4,,0.00,5,,3
2012-12-7,86,78,71,75,73,66,83,79,66,29.92,29.84,29.75,10,9,8,12,4,,0.00,4,,247
2012-12-8,87,79,71,75,72,66,89,77,62,29.93,29.86,29.78,10,10,10,12,2,,0.00,3,,248
2012-12-9,86,78,69,75,72,64,94,80,62,29.98,29.89,29.78,10,10,10,14,2,,0.00,2,,244
2012-12-10,89,80,71,72,68,64,89,69,46,29.95,29.87,29.77,10,10,8,12,2,,0.00,0,,263
2012-12-11,91,80,68,72,68,61,88,68,46,29.92,29.85,29.76,10,10,8,14,4,,0.00,1,,303
2012-12-12,93,83,73,77,71,66,89,70,49,29.95,29.87,29.81,10,10,8,12,2,,0.00,1,,174
2012-12-13,87,80,73,79,74,68,89,80,66,29.98,29.91,29.78,10,10,8,10,2,,0.00,3,,224
2012-12-14,86,80,73,77,74,66,94,81,66,29.97,29.91,29.78,10,10,8,12,2,,0.00,2,,237
2012-12-15,86,80,75,75,73,68,94,80,66,29.94,29.88,29.78,10,10,10,12,2,,0.00,2,,227
2012-12-16,86,80,75,75,74,72,89,81,70,29.94,29.88,29.78,10,10,8,12,2,,0.00,3,,224
2012-12-17,86,80,75,73,73,72,89,77,66,29.93,29.88,29.83,10,10,10,12,2,,0.00,5,,248
2012-12-18,89,83,77,73,72,72,83,74,55,29.95,29.88,29.79,10,10,10,13,1,,0.00,4,,263
2012-12-19,89,81,73,75,71,66,89,74,46,29.94,29.87,29.80,10,10,10,12,2,,0.00,1,,213
2012-12-20,87,80,73,75,72,66,89,77,62,29.94,29.87,29.81,10,10,10,16,2,,0.00,0,,276
2012-12-21,87,80,73,77,73,70,89,79,58,29.94,29.87,29.78,10,9,8,12,4,,0.00,1,,74
2012-12-22,87,80,73,75,71,66,83,73,58,29.95,29.89,29.83,10,10,8,12,3,,0.00,1,,218
2012-12-23,86,78,71,73,71,66,94,76,51,29.94,29.88,29.82,10,9,8,12,4,,0.00,2,,242
2012-12-24,86,80,73,75,72,68,89,79,66,29.96,29.89,29.82,10,10,8,12,2,,0.00,1,,240
2012-12-25,89,81,73,73,71,64,94,78,43,29.93,29.85,29.75,15,10,8,17,3,,0.00,2,,265
2012-12-26,87,79,71,75,72,66,89,78,58,29.90,29.85,29.76,10,10,10,16,2,,0.00,0,,259
2012-12-27,89,80,71,72,70,64,94,72,52,29.90,29.84,29.78,10,10,10,12,2,,0.00,0,,238
2012-12-28,91,82,73,72,70,66,83,70,43,29.90,29.84,29.76,10,10,8,14,2,,0.00,0,,296
2012-12-29,87,81,75,77,72,68,94,74,55,29.93,29.86,29.79,10,9,8,12,3,,0.00,0,,168
2012-12-30,89,80,71,77,72,66,89,74,55,29.96,29.90,29.77,10,10,10,12,0,,0.00,1,,210
2012-12-31,87,80,73,75,72,66,89,75,62,29.98,29.91,29.85,10,10,10,12,2,,0.00,3,,240